Adana, Turkey

8:19 PM +03 on December 13, 2017 (GMT +0300)
Adana

Weather History for LTAF - April, 2013

Change the Weather History Date:

Tuesday, April 23, 2013

  Actual Average Record
Temperature  
Mean Temperature 64 °F -  
Max Temperature 75 °F 79 °F 96 °F (2008)
Min Temperature 53 °F 57 °F 35 °F (1997)
Degree Days  
Heating Degree Days 1    
Growing Degree Days 14 (Base 50)    
Moisture  
Dew Point 53 °F    
Average Humidity 72    
Maximum Humidity 94    
Minimum Humidity 41    
Precipitation  
Precipitation 0.00 in 0.06 in - ()
Sea Level Pressure  
Sea Level Pressure 30.05 in    
Wind  
Wind Speed 4 mph ()    
Max Wind Speed 14 mph    
Max Gust Speed -    
Visibility 5.2 miles    
Events      
Averages and records for this station are not official NWS values.
T = Trace of Precipitation, MM = Missing Value Source: Averaged Metar Reports

Daily Weather History Graph

Daily Weather History Graph

Search for Another Location

Airport or City:

Trip Planner

Search our weather history database for the weather conditions in past years. The results will help you decide how hot, cold, wet, or windy it might be!

Date:

Astronomy

Apr. 23, 2013 Rise Set
Actual Time 5:54 AM EEST 7:20 PM EEST
Civil Twilight 5:26 AM EEST 7:47 PM EEST
Nautical Twilight 4:54 AM EEST 8:20 PM EEST
Astronomical Twilight 4:19 AM EEST 8:55 PM EEST
Moon 4:55 PM EEST (4/23) 4:06 AM EEST (4/23)
Length of Visible Light 14h 21m
Length of Day
13h 26m
Waxing Gibbous, 92% of the Moon is Illuminated
Apr 23
Waxing Gibbous
Apr 25
Full
May 2
Last Quarter
May 10
New
May 18
First Quarter

Hourly Weather History & Observations

Time (EEST) Temp. Dew Point Humidity Pressure Visibility Wind Dir Wind Speed Gust Speed Precip Events Conditions
12:20 AM 57.2 °F 53.6 °F 88% 29.95 in 3.1 mi Calm Calm - N/A   Scattered Clouds
12:50 AM 57.2 °F 53.6 °F 88% 29.98 in 3.1 mi Variable 1.2 mph - N/A   Scattered Clouds
1:20 AM 57.2 °F 53.6 °F 88% 29.95 in 3.1 mi Calm Calm - N/A   Scattered Clouds
1:50 AM 55.4 °F 51.8 °F 88% 29.98 in 3.1 mi ENE 3.5 mph - N/A   Scattered Clouds
2:20 AM 55.4 °F 51.8 °F 88% 29.98 in 3.1 mi Calm Calm - N/A   Scattered Clouds
2:50 AM 55.4 °F 51.8 °F 88% 29.98 in 3.1 mi NE 2.3 mph - N/A   Scattered Clouds
3:20 AM 55.4 °F 51.8 °F 88% 29.98 in 3.1 mi ENE 4.6 mph - N/A   Scattered Clouds
3:50 AM 55.4 °F 51.8 °F 88% 29.98 in 3.1 mi NE 4.6 mph - N/A   Scattered Clouds
4:20 AM 55.4 °F 51.8 °F 88% 29.98 in 3.1 mi ENE 2.3 mph - N/A   Scattered Clouds
4:50 AM 53.6 °F 51.8 °F 94% 29.98 in 3.1 mi NE 5.8 mph - N/A   Scattered Clouds
5:20 AM 53.6 °F 51.8 °F 94% 30.01 in 3.1 mi NE 4.6 mph - N/A   Partly Cloudy
5:50 AM 55.4 °F 51.8 °F 88% 30.01 in 3.1 mi NE 3.5 mph - N/A   Scattered Clouds
6:20 AM 53.6 °F 51.8 °F 94% 30.01 in 3.1 mi Variable 1.2 mph - N/A   Scattered Clouds
6:50 AM 57.2 °F 55.4 °F 94% 30.04 in 3.1 mi NE 4.6 mph - N/A   Scattered Clouds
7:20 AM 59.0 °F 57.2 °F 94% 30.04 in 3.1 mi NE 4.6 mph - N/A   Partly Cloudy
7:50 AM 60.8 °F 57.2 °F 88% 30.04 in 6.2 mi NNE 5.8 mph - N/A   Partly Cloudy
8:20 AM 62.6 °F 57.2 °F 82% 30.06 in 6.2 mi NNE 5.8 mph - N/A   Partly Cloudy
8:50 AM 64.4 °F 57.2 °F 77% 30.06 in 6.2 mi NE 4.6 mph - N/A   Partly Cloudy
9:20 AM 66.2 °F 55.4 °F 68% 30.06 in 6.2 mi Variable 3.5 mph - N/A   Partly Cloudy
9:50 AM 66.2 °F 55.4 °F 68% 30.09 in 6.2 mi Variable 2.3 mph - N/A   Scattered Clouds
10:20 AM 68.0 °F 55.4 °F 64% 30.09 in 6.2 mi South 4.6 mph - N/A   Scattered Clouds
10:50 AM 69.8 °F 55.4 °F 60% 30.09 in 6.2 mi Variable 4.6 mph - N/A   Scattered Clouds
11:20 AM 71.6 °F 53.6 °F 53% 30.09 in 6.2 mi Variable 3.5 mph - N/A   Scattered Clouds
11:50 AM 71.6 °F 51.8 °F 50% 30.09 in 6.2 mi Variable 4.6 mph - N/A   Scattered Clouds
12:20 PM 71.6 °F 53.6 °F 53% 30.09 in 6.2 mi Variable 2.3 mph - N/A   Scattered Clouds
12:50 PM 73.4 °F 51.8 °F 47% 30.06 in 6.2 mi Variable 4.6 mph - N/A   Scattered Clouds
1:20 PM 73.4 °F 50.0 °F 44% 30.06 in 6.2 mi Variable 4.6 mph - N/A   Scattered Clouds
1:50 PM 73.4 °F 51.8 °F 47% 30.06 in 6.2 mi South 5.8 mph - N/A   Scattered Clouds
2:20 PM 75.2 °F 53.6 °F 47% 30.06 in 6.2 mi SW 9.2 mph - N/A   Scattered Clouds
2:50 PM 73.4 °F 55.4 °F 53% 30.06 in 6.2 mi South 9.2 mph - N/A   Scattered Clouds
3:20 PM 73.4 °F 53.6 °F 50% 30.06 in 6.2 mi SW 12.7 mph - N/A   Scattered Clouds
3:50 PM 73.4 °F 53.6 °F 50% 30.06 in 6.2 mi SW 13.8 mph - N/A   Scattered Clouds
4:20 PM 73.4 °F 48.2 °F 41% 30.06 in 6.2 mi SSW 13.8 mph - N/A   Scattered Clouds
4:50 PM 71.6 °F 50.0 °F 46% 30.06 in 6.2 mi SW 12.7 mph - N/A   Scattered Clouds
5:20 PM 71.6 °F 48.2 °F 43% 30.06 in 6.2 mi SW 10.4 mph - N/A   Scattered Clouds
5:50 PM 71.6 °F 50.0 °F 46% 30.06 in 6.2 mi SW 11.5 mph - N/A   Scattered Clouds
6:20 PM 69.8 °F 46.4 °F 43% 30.06 in 6.2 mi SW 10.4 mph - N/A   Scattered Clouds
6:50 PM 68.0 °F 50.0 °F 52% 30.06 in 6.2 mi SW 10.4 mph - N/A   Scattered Clouds
7:20 PM 66.2 °F 53.6 °F 64% 30.06 in 6.2 mi SW 8.1 mph - N/A   Scattered Clouds
7:50 PM 62.6 °F 53.6 °F 72% 30.09 in 6.2 mi SW 5.8 mph - N/A   Partly Cloudy
8:20 PM 62.6 °F 55.4 °F 77% 30.09 in 6.2 mi SSW 4.6 mph - N/A   Partly Cloudy
8:50 PM 60.8 °F 55.4 °F 82% 30.09 in 6.2 mi SSE 3.5 mph - N/A   Partly Cloudy
9:20 PM 60.8 °F 55.4 °F 82% 30.12 in 6.2 mi SSE 3.5 mph - N/A   Partly Cloudy
9:50 PM 60.8 °F 55.4 °F 82% 30.12 in 6.2 mi SE 4.6 mph - N/A   Partly Cloudy
10:20 PM 59.0 °F 55.4 °F 88% 30.12 in 6.2 mi SE 4.6 mph - N/A   Partly Cloudy
10:50 PM 59.0 °F 55.4 °F 88% 30.12 in - ESE 5.8 mph - N/A   Clear
11:20 PM 59.0 °F 55.4 °F 88% 30.12 in - ESE 3.5 mph - N/A   Clear
11:50 PM 57.2 °F 53.6 °F 88% 30.15 in - NE 4.6 mph - N/A   Clear